Hourly Weather Roundup
Issued by NWS Central Illinois

Home | Current Version | Previous Version | Text Only | Print | Product List | Glossary On
Versions: 1 2 3 4 5 6 7 8 9 10 11 12 13 14 15 16 17 18 19 20 21 22 23 24 25 26 27 28 29 30 31 32 33 34 35 36 37 38 39 40 41 42 43 44 45 46 47 48 49 50
000
NZUS43 KILX 030510
HWRILX

AREA WEATHER ROUNDUP
NATIONAL WEATHER SERVICE, LINCOLN IL
1200 AM CDT SUN MAY 03 2015


CITY           SKY/WX    TMP DP  RH WIND       PRES   REMARKS
BLOOMINGTON    MOCLDY    60  46  59 S8        30.01F
CHAMPAIGN      MOCLDY    59  40  49 S8        30.02S
DANVILLE       MOCLDY    58  42  55 CALM      30.00S
DECATUR        CLOUDY    63  44  50 S7        30.01S
EFFINGHAM      CLOUDY    60  44  54 E3        30.04S
FLORA          MOCLDY    57  49  75 CALM      30.03F
GALESBURG      MOCLDY    59  47  65 SE7       29.96F
JACKSONVILLE   MOCLDY    63  51  63 SE6       29.98F
LACON          MOCLDY    60  46  59 SE3       29.97S
LAWRENCEVILLE  MOCLDY    58  49  72 S5        30.05F
LITCHFIELD     CLOUDY    63  43  48 SE7       30.01S
$$


CITY           SKY/WX    TMP DP  RH WIND       PRES   REMARKS
LINCOLN        CLOUDY    65  45  47 CALM      29.98S
MACOMB         PTCLDY    57  47  69 S5        29.99S
MATTOON        CLOUDY    62  45  53 S8        30.02F
MT CARMEL AP   MOCLDY    59  45  58 CALM      30.04F
OLNEY-NOBLE AP CLOUDY    59  46  63 CALM      30.04F
PARIS          MOCLDY    55  45  70 S5        30.04F
PEORIA         MOCLDY    62  46  55 S5        29.98F
PONTIAC        CLOUDY    62  43  50 S8        30.00S
RANTOUL        CLOUDY    60  41  50 S5        30.02S
ROBINSON       CLOUDY    56  49  77 S3        30.05F
SPRINGFIELD    CLOUDY    62  50  64 S7        30.00R
TAYLORVILLE    CLOUDY    63  43  48 S8        30.01S
$$

...REGIONAL REPORTS...


CITY           SKY/WX    TMP DP  RH WIND       PRES   REMARKS
CHICAGO O`HARE MOCLDY    58  40  51 S7        29.96S
KANKAKEE       CLOUDY    56  43  61 S6        30.01S
MOLINE         CLOUDY    62  48  60 S3        29.95S
MOUNT VERNON   MOCLDY    54  46  76 CALM      30.04F
PITTSFIELD     MOCLDY    62  52  69 SE5       29.98F
QUINCY         CLOUDY    60  50  69 SE8       29.95F
ROCKFORD       CLOUDY    60  43  53 S3        29.98R
$$


CITY           SKY/WX    TMP DP  RH WIND       PRES   REMARKS
BURLINGTON     MOCLDY    61  48  62 SE7       29.94F
CEDAR RAPIDS   MOCLDY    59  54  83 S8        29.92F
DES MOINES     PTCLDY    58  51  78 S9        29.86F
KIRKSVILLE     CLEAR     53  52  96 S8        29.94F
OTTUMWA        PTCLDY    57  51  80 S13       29.90F
ST LOUIS       CLOUDY    70  43  37 S10       29.99F
$$


CITY           SKY/WX    TMP DP  RH WIND       PRES   REMARKS
TERRE HAUTE    PTCLDY    56  45  66 CALM      30.04F
EVANSVILLE     MOCLDY    57  49  74 CALM      30.06S
INDIANAPOLIS   PTCLDY    58  42  55 SW6       30.04S
LAFAYETTE      MOCLDY    57  42  57 CALM      30.03S
MADISON        MOCLDY    63  45  51 SW5       29.92S
MILWAUKEE      PTCLDY    61  39  44 SW7       29.94S
$$




USA.gov is the U.S. government's official web portal to all federal, state and local government web resources and services.